BAW9035 KSFO-KSEA

Flight info

Callsign BAW9035
Flight time N/A
Altitude 38000
Route TRUKN2 DEDHD RBL LMT HAWKZ8
Aircraft A20N/M-SDE2E3FGHIRWXY/LB1

Departure

Time 2026-04-30 21:22
Airport San Francisco International Airport (KSFO)

Arrival

Time N/A
Airport Seattle–Tacoma International Airport (KSEA)
Time Latitude Longitude Altitude Speed Heading
2026-04-30 20:53 37.61483 -122.38182 32 ft 0 kts 301°
2026-04-30 21:10 37.61482 -122.38182 32 ft 0 kts 301°
2026-04-30 21:13 37.61478 -122.38172 32 ft 2 kts 301°
2026-04-30 21:13 37.61470 -122.38156 32 ft 2 kts 301°
2026-04-30 21:13 37.61463 -122.38140 32 ft 2 kts 301°
2026-04-30 21:13 37.61454 -122.38124 32 ft 2 kts 324°
2026-04-30 21:14 37.61440 -122.38117 32 ft 2 kts 359°
2026-04-30 21:14 37.61429 -122.38119 32 ft 0 kts 25°
2026-04-30 21:14 37.61423 -122.38123 32 ft 0 kts 28°
2026-04-30 21:14 37.61422 -122.38124 32 ft 0 kts 28°
2026-04-30 21:16 37.61423 -122.38123 32 ft 0 kts 28°
2026-04-30 21:17 37.61427 -122.38120 32 ft 1 kts 28°
2026-04-30 21:17 37.61461 -122.38097 32 ft 10 kts 28°
2026-04-30 21:17 37.61554 -122.38039 32 ft 18 kts 26°
2026-04-30 21:17 37.61662 -122.37954 31 ft 17 kts 51°
2026-04-30 21:18 37.61671 -122.37787 28 ft 22 kts 103°
2026-04-30 21:18 37.61642 -122.37563 21 ft 29 kts 96°
2026-04-30 21:18 37.61619 -122.37303 15 ft 29 kts 99°
2026-04-30 21:18 37.61536 -122.37076 12 ft 27 kts 117°
2026-04-30 21:19 37.61437 -122.36880 12 ft 26 kts 134°
2026-04-30 21:19 37.61332 -122.36696 12 ft 26 kts 118°
2026-04-30 21:19 37.61246 -122.36494 11 ft 25 kts 117°
2026-04-30 21:19 37.61166 -122.36302 9 ft 23 kts 118°
2026-04-30 21:20 37.61094 -122.36130 9 ft 20 kts 118°
2026-04-30 21:20 37.61052 -122.35980 9 ft 16 kts 79°
2026-04-30 21:20 37.61118 -122.35892 9 ft 12 kts 29°
2026-04-30 21:20 37.61205 -122.35920 9 ft 17 kts 310°
2026-04-30 21:21 37.61319 -122.36179 9 ft 65 kts 297°
2026-04-30 21:21 37.61639 -122.36955 13 ft 129 kts 299°
2026-04-30 21:21 37.62704 -122.39428 281 ft 179 kts 300°
2026-04-30 21:22 37.63356 -122.40917 753 ft 206 kts 301°
2026-04-30 21:22 37.66862 -122.41100 3131 ft 221 kts 54°
2026-04-30 21:23 37.67450 -122.39267 3923 ft 237 kts 73°
2026-04-30 21:23 37.67947 -122.37242 4671 ft 253 kts 72°
2026-04-30 21:23 37.69002 -122.32879 6553 ft 266 kts 72°
2026-04-30 21:24 37.69537 -122.30667 7474 ft 271 kts 72°
2026-04-30 21:24 37.70086 -122.28393 8339 ft 276 kts 72°
2026-04-30 21:24 37.70649 -122.26060 9199 ft 280 kts 71°
2026-04-30 21:24 37.71269 -122.23737 10032 ft 283 kts 62°
2026-04-30 21:25 37.74339 -122.20736 11272 ft 297 kts 12°
2026-04-30 21:25 37.76430 -122.20586 12030 ft 300 kts
2026-04-30 21:25 37.78509 -122.20324 12852 ft 300 kts
2026-04-30 21:26 37.82659 -122.19673 14225 ft 307 kts
2026-04-30 21:26 37.84786 -122.19327 14885 ft 310 kts
2026-04-30 21:27 37.89103 -122.18620 16232 ft 315 kts
2026-04-30 21:27 37.91260 -122.18265 16806 ft 319 kts
2026-04-30 21:27 37.93500 -122.17897 17402 ft 322 kts
2026-04-30 21:28 37.97953 -122.17165 18581 ft 326 kts
2026-04-30 21:28 38.00216 -122.16792 19151 ft 327 kts
2026-04-30 21:28 38.04747 -122.16047 20191 ft 332 kts
2026-04-30 21:29 38.07041 -122.15669 20677 ft 335 kts
2026-04-30 21:29 38.14055 -122.14510 22189 ft 342 kts
2026-04-30 21:30 38.18788 -122.13729 23089 ft 347 kts
2026-04-30 21:31 38.25992 -122.12536 24468 ft 352 kts
2026-04-30 21:31 38.30904 -122.11721 25317 ft 356 kts
2026-04-30 21:32 38.35832 -122.11437 26081 ft 355 kts 354°
2026-04-30 21:32 38.38297 -122.11600 26445 ft 358 kts 353°
2026-04-30 21:32 38.40789 -122.11771 26801 ft 360 kts 353°
2026-04-30 21:32 38.43283 -122.11945 27202 ft 361 kts 354°
2026-04-30 21:33 38.45797 -122.12117 27555 ft 363 kts 354°
2026-04-30 21:33 38.50915 -122.12468 28210 ft 367 kts 353°
2026-04-30 21:33 38.53471 -122.12643 28615 ft 367 kts 353°
2026-04-30 21:34 38.56010 -122.12818 29028 ft 366 kts 353°
2026-04-30 21:34 38.61106 -122.13169 29887 ft 364 kts 353°
2026-04-30 21:34 38.63619 -122.13341 30291 ft 363 kts 353°
2026-04-30 21:35 38.66134 -122.13514 30703 ft 361 kts 353°
2026-04-30 21:35 38.68627 -122.13687 31079 ft 360 kts 353°
2026-04-30 21:35 38.71112 -122.13857 31458 ft 359 kts 353°
2026-04-30 21:35 38.73574 -122.14027 31801 ft 359 kts 353°
2026-04-30 21:36 38.76086 -122.14201 32146 ft 358 kts 352°
2026-04-30 21:36 38.78575 -122.14373 32509 ft 357 kts 352°
2026-04-30 21:37 38.86011 -122.14889 33498 ft 355 kts 352°
2026-04-30 21:37 38.88503 -122.15060 33788 ft 355 kts 351°
2026-04-30 21:37 38.90919 -122.15230 34054 ft 355 kts 351°
2026-04-30 21:37 38.93431 -122.15404 34363 ft 355 kts 351°
2026-04-30 21:38 38.95881 -122.15574 34685 ft 353 kts 351°
2026-04-30 21:38 38.98305 -122.15743 34981 ft 352 kts 351°
2026-04-30 21:38 39.00778 -122.15915 35282 ft 351 kts 351°
2026-04-30 21:38 39.03208 -122.16085 35560 ft 351 kts 351°
2026-04-30 21:39 39.05668 -122.16256 35809 ft 351 kts 351°
2026-04-30 21:39 39.08103 -122.16426 36097 ft 349 kts 351°
2026-04-30 21:39 39.10511 -122.16594 36336 ft 349 kts 351°
2026-04-30 21:39 39.12946 -122.16766 36560 ft 350 kts 351°
2026-04-30 21:40 39.15385 -122.16934 36817 ft 349 kts 351°
2026-04-30 21:40 39.17800 -122.17104 37069 ft 349 kts 351°
2026-04-30 21:40 39.20238 -122.17274 37307 ft 348 kts 351°
2026-04-30 21:40 39.22644 -122.17445 37495 ft 349 kts 351°
2026-04-30 21:41 39.25089 -122.17614 37709 ft 348 kts 351°
2026-04-30 21:41 39.27496 -122.17783 37890 ft 349 kts 351°
2026-04-30 21:41 39.32373 -122.18127 37884 ft 359 kts 351°
2026-04-30 21:42 39.37441 -122.18484 37939 ft 368 kts 352°
2026-04-30 21:42 39.42631 -122.18850 37934 ft 378 kts 352°
2026-04-30 21:43 39.47051 -122.19160 37927 ft 386 kts 352°
2026-04-30 21:43 39.53392 -122.19608 37934 ft 396 kts 352°
2026-04-30 21:44 39.58926 -122.20001 37934 ft 403 kts 352°
2026-04-30 21:44 39.64545 -122.20397 37935 ft 408 kts 352°
2026-04-30 21:45 39.70242 -122.20801 37934 ft 411 kts 352°
2026-04-30 21:45 39.75982 -122.21209 37924 ft 414 kts 352°
2026-04-30 21:46 39.81716 -122.21619 37935 ft 415 kts 352°
2026-04-30 21:46 39.86691 -122.21972 37912 ft 416 kts 352°
2026-04-30 21:47 39.91819 -122.22338 37918 ft 417 kts 352°
2026-04-30 21:47 39.98056 -122.22784 37924 ft 417 kts 352°
2026-04-30 21:48 40.03841 -122.23199 37920 ft 417 kts 352°
2026-04-30 21:48 40.09666 -122.23595 37929 ft 418 kts 355°
2026-04-30 21:49 40.12586 -122.23090 37937 ft 427 kts
2026-04-30 21:49 40.15487 -122.22330 37979 ft 425 kts
2026-04-30 21:49 40.21320 -122.20895 37931 ft 427 kts